weather.gov     
National Weather Service

Regional Weather Roundup
NWS Homepage
This page is being discontinued on March 12, 2014.
The same data is available at this site. Please update your bookmarks.
Thank you, and we apologize for the inconvenience.
Please send an email to SR-SRH.Webmaster@noaa.gov with any concerns.


Current Version
Previous Version:    01  02  03  04  05  06  07  08  09  10  11  12  13  14  15  16  17  18  19  20  21  22  23  24  25  26  27  28  29  30  
   31  32  33  34  35  36  37  38  39  40  41  42  43  44  45  46  47  48  49  50  51  52  53  
[Printable]
194
ASUS43 KFSD 250610
RWRFSD

WEATHER ROUNDUP FOR SE SOUTH DAKOTA/SW MINNESOTA/NW IOWA
NATIONAL WEATHER SERVICE SIOUX FALLS SD
100 AM CDT FRI JUL 25 2014

NOTE: "FAIR" INDICATES FEW OR NO CLOUDS BELOW 12,000 FEET WITH NO
SIGNIFICANT WEATHER AND OR OBSTRUCTIONS TO VISIBILITY.


SDZ038>040-050-052>070-250700-
SOUTHEAST SOUTH DAKOTA

CITY           SKY/WX    TMP DP  RH WIND       PRES   REMARKS
CHAMBERLAIN    MOCLDY    76  63  63 S7        29.67R
6HR MIN TEMP:  74; 6HR MAX TEMP:  87;

HURON          MOCLDY    70  62  76 SE12G18   29.70R
6HR MIN TEMP:  70; 6HR MAX TEMP:  76;

MADISON        FAIR      66  66 100 SE8       29.79F
MITCHELL       MOCLDY    72  64  76 SE12      29.68F
6HR MIN TEMP:  72; 6HR MAX TEMP:  78;

SIOUX FALLS    MOCLDY    69  62  78 SE8       29.78F
6HR MIN TEMP:  69; 6HR MAX TEMP:  72;

WINNER         FAIR      80  60  50 S26G35    29.68R
YANKTON        CLOUDY    73  64  73 NE9       29.72F
$$

MNZ071-072-080-081-089-090-097-098-250700-
SOUTHWEST MINNESOTA

CITY           SKY/WX    TMP DP  RH WIND       PRES   REMARKS
FAIRMONT       MOCLDY    63  57  82 SE14      29.86F
JACKSON        CLOUDY    63  59  88 SE8       29.89F THUNDER
LUVERNE        LGT RAIN  66  63  88 SE8       29.80F
MARSHALL       CLOUDY    64  61  88 SE8       29.81F
6HR MIN TEMP:  64; 6HR MAX TEMP:  70;

MONTEVIDEO     CLOUDY    66  61  82 S10G17    29.81F
PIPESTONE      MOCLDY    66  61  82 S12       29.81F
REDWOOD FALLS  CLOUDY    66  60  81 SE9       29.84F
WINDOM         MOCLDY    63  61  94 SE12G20   29.87F
WORTHINGTON    CLOUDY    64  63  94 SE8       29.85F
$$

IAZ001>003-012>014-020>022-031-032-NEZ013-014-SDZ071-250700-
NORTHWEST IOWA

CITY           SKY/WX    TMP DP  RH WIND       PRES   REMARKS
CHEROKEE       CLOUDY    69  62  79 S18       29.82F
DENISON        CLOUDY    70  61  73 S9G20     29.85S
ESTHERVILLE    TSTM      63  61  93 E6        29.89F
LE MARS        CLOUDY    72  63  73 S17G26    29.78F
ORANGE CITY    MOCLDY    70  59  68 SE7       29.81F
SHELDON        MOCLDY    66  63  88 SE10      29.81F
SIOUX CITY     CLOUDY    74  62  66 S24G36    29.75F
6HR MIN TEMP:  74; 6HR MAX TEMP:  78;

SPENCER        LGT RAIN  64  61  90 SE16      29.81F
6HR MIN TEMP:  63; 6HR MAX TEMP:  68; 6HR PCP:  0.23;

STORM LAKE     CLOUDY    66  64  94 S15       29.90R
$$

ABBREVIATIONS USED IN REMARKS
   TC - TEMPERATURE IN CELSIUS
  WCI - WIND CHILL INDEX
   HX - HEAT INDEX
  VSB - VISIBILITY





U.S. Dept. of Commerce
NOAA National Weather Service
1325 East West Highway
Silver Spring, MD 20910
E-mail: w-nws.webmaster@noaa.gov
Page last modified: May 16, 2007
NATIONAL WEATHER SERVICE: for Safety, for Work, for Fun - FOR LIFE